Dewpoint
52 52 52 52 52 52 53 53 53 54 53 54 54 55 55 56 56 57 57 57 58 58 59 59 60 60 60 60 61 61 58 47 41 39 39 44 55 61 65 66 66 66 59 35 26 24 20 20 19 23 27 26 32 31 34 34 33 37 24 23 22 23 20 25 20 20 23 16 18 19 19 17 17 20 22 24 22 23 24 25 25 27 28 29 30 37 36 57
51 52 52 52 52 52 52 53 53 53 53 53 53 54 55 55 56 56 57 57 57 58 58 59 59 60 60 60 60 60 57 50 39 39 40 53 61 62 63 65 65 64 60 34 22 21 18 18 21 23 21 18 36 28 33 31 33 28 27 23 16 23 21 21 21 19 16 18 16 19 20 19 17 19 22 19 20 21 20 22 23 23 26 30 33 39 36 58
51 51 51 52 52 52 52 52 52 53 53 53 53 54 54 55 55 56 57 57 58 58 59 59 60 60 60 60 60 59 52 40 33 30 36 56 60 63 63 64 65 60 41 32 30 24 20 19 21 21 24 18 25 23 30 24 31 26 29 17 17 31 21 23 20 19 20 19 18 19 20 20 20 20 22 18 19 21 18 17 22 22 22 27 40 43 46 58
51 50 51 51 52 52 52 52 52 52 53 53 53 53 54 54 55 56 56 57 57 58 58 59 59 60 59 60 60 58 46 30 23 31 42 55 62 64 63 64 65 55 37 31 28 27 24 22 22 22 24 18 25 29 20 25 26 26 20 15 22 22 21 22 22 20 20 20 19 19 20 19 21 21 21 19 17 17 17 18 17 18 20 26 40 44 52 56
51 50 50 51 51 50 51 51 52 52 52 52 53 53 53 54 55 55 56 57 57 58 58 59 59 60 60 60 58 54 44 10 21 33 46 59 62 63 63 62 62 44 40 27 23 22 21 20 21 26 24 16 25 20 20 24 27 25 20 23 23 23 23 23 23 24 22 22 20 20 19 19 22 22 21 20 15 13 15 18 21 19 22 28 39 46 52 54
50 51 50 51 50 51 50 50 51 51 51 52 52 53 53 54 54 55 55 56 57 58 58 59 59 59 60 59 57 48 32 -3 27 42 58 59 60 61 60 60 51 30 28 26 25 25 21 19 20 21 18 17 19 12 21 23 25 10 22 21 24 23 22 24 24 25 22 21 19 19 20 21 20 20 22 21 18 19 22 25 24 23 24 27 38 48 51 53
50 50 51 51 51 50 51 51 51 51 51 52 52 52 53 54 54 55 55 56 56 57 58 59 59 59 59 57 52 38 26 25 39 47 57 59 59 54 59 57 47 34 30 26 24 23 23 20 21 24 22 22 20 21 22 22 24 22 18 22 23 24 23 24 24 25 22 20 19 21 22 20 20 18 22 21 21 21 22 25 28 29 27 28 41 47 49 52
50 50 51 48 52 50 50 51 51 51 51 52 52 52 53 53 54 54 55 56 56 57 58 58 59 59 57 48 44 32 33 32 38 49 56 56 47 43 52 38 37 40 30 27 22 20 25 18 17 24 18 13 20 21 23 23 21 20 20 23 23 24 24 25 24 22 22 21 22 22 20 20 21 21 22 20 20 22 22 27 29 29 29 28 32 45 48 52
51 49 52 49 51 51 50 50 51 52 52 52 52 52 53 53 53 54 55 55 56 57 58 58 58 59 56 43 30 20 22 37 46 49 52 47 43 43 47 38 34 31 32 31 28 27 24 22 23 22 15 20 22 21 22 20 17 23 23 23 23 23 24 23 23 23 23 23 22 21 20 22 22 23 21 20 21 25 29 26 28 29 27 28 29 35 45 50
52 50 50 52 52 49 51 51 50 51 52 52 52 52 53 53 53 54 54 55 56 57 57 58 58 56 47 41 31 11 31 47 51 49 46 44 39 39 40 41 34 32 30 30 26 26 24 22 23 23 23 22 23 22 25 22 16 24 23 23 23 24 24 25 22 23 24 25 23 20 20 21 22 22 15 22 26 27 27 27 29 27 26 27 28 30 36 44
52 52 51 51 51 51 52 51 51 51 51 53 52 53 53 53 54 54 55 55 56 56 57 58 59 51 48 33 16 9 42 53 49 45 44 44 38 37 40 42 38 32 32 34 31 32 28 26 32 26 29 19 23 22 23 22 24 24 23 24 23 24 24 24 24 24 24 22 23 22 21 22 21 23 18 22 27 28 26 25 27 28 28 26 28 29 32 33
53 53 52 52 52 51 51 52 51 52 52 52 53 53 53 53 54 54 55 55 56 57 57 58 58 51 35 32 22 29 34 48 48 43 44 44 41 44 46 40 40 41 32 29 36 40 38 29 30 21 15 25 20 23 23 24 25 24 25 20 23 23 23 24 23 23 25 22 23 22 21 21 21 20 22 24 26 27 26 26 26 27 28 31 31 30 31 32
54 53 53 53 52 51 51 51 51 51 52 52 53 53 53 54 54 55 55 56 57 57 58 58 57 52 39 14 31 40 42 45 48 43 40 43 43 41 39 41 37 33 36 30 34 41 37 33 30 23 26 23 24 21 24 26 25 25 24 23 21 21 20 24 25 23 23 23 24 23 18 17 20 21 23 24 25 25 24 25 24 26 27 28 30 30 31 31
55 54 54 54 54 53 52 52 52 52 53 53 53 53 54 54 55 56 56 56 57 57 58 58 55 47 28 21 41 43 45 49 44 40 44 43 36 40 41 40 39 36 43 37 40 38 36 31 30 26 28 24 22 30 26 26 25 22 23 24 25 21 19 24 25 24 22 23 23 22 21 16 20 20 24 27 27 24 22 22 23 25 25 27 32 32 31 31
56 55 55 55 55 54 54 54 53 54 53 53 54 54 54 55 56 56 56 57 57 58 58 56 52 36 16 26 35 44 55 45 39 43 45 38 33 36 33 36 36 35 34 36 36 36 33 37 31 25 25 28 28 25 23 23 23 22 20 21 27 21 21 22 26 24 21 22 23 22 23 19 19 20 24 27 27 26 24 23 23 24 25 26 28 27 28 29
57 56 56 56 55 55 55 55 55 55 54 54 54 54 55 55 56 57 57 57 58 57 57 56 43 36 13 8 42 55 44 39 38 45 46 43 44 35 40 37 38 34 33 32 35 34 33 32 27 26 26 26 25 23 23 24 24 24 22 30 24 25 22 19 24 24 24 22 23 22 18 19 16 21 25 27 26 25 24 24 25 25 25 26 25 27 27 29
57 57 56 56 56 56 55 55 56 56 55 54 55 55 55 56 56 57 57 57 56 54 55 39 35 29 9 25 36 33 39 43 45 45 44 39 41 37 37 36 31 31 34 34 36 36 33 29 30 31 27 24 25 26 22 25 24 23 26 22 29 21 20 15 24 24 27 22 21 22 21 20 19 21 23 24 25 25 23 23 23 25 25 26 28 28 26 27
57 57 57 57 56 56 56 56 56 55 55 55 55 55 56 56 57 54 57 54 55 49 46 39 39 27 15 26 25 26 44 44 46 41 43 37 38 33 34 30 32 33 34 30 32 29 32 28 31 27 27 25 24 24 22 15 20 21 23 23 21 22 23 21 20 24 23 21 21 21 21 21 21 22 22 22 25 23 23 23 23 23 24 25 26 27 26 28
57 57 57 57 56 56 56 56 56 55 55 55 55 54 56 56 56 52 43 40 26 25 17 25 14 12 16 18 38 43 46 44 46 43 35 40 38 36 35 35 37 30 33 30 30 29 33 33 34 29 26 25 22 21 19 21 20 18 22 19 23 19 21 19 22 25 24 22 21 21 21 20 21 22 22 23 24 24 23 24 24 24 24 24 25 27 28 30
58 58 57 57 57 57 57 57 56 55 54 53 53 45 44 36 38 33 35 37 25 21 21 23 24 28 33 31 41 43 45 45 38 41 42 41 39 34 32 33 41 33 29 28 32 30 35 29 27 28 24 24 24 24 22 22 23 26 29 27 20 21 19 23 24 26 26 23 23 23 23 22 23 23 23 24 24 25 25 24 25 26 27 28 28 27 30 30
58 57 57 57 57 57 57 57 55 55 54 54 50 28 17 25 17 12 25 30 37 32 37 32 30 26 31 38 43 41 37 37 39 42 41 42 35 33 31 31 30 28 31 32 33 31 29 28 28 26 25 25 25 24 24 24 25 21 24 25 22 28 19 24 25 26 26 24 23 24 23 24 24 24 24 24 24 24 24 25 25 25 25 27 30 31 33 31
58 58 58 57 57 57 57 56 55 55 53 52 45 26 40 26 34 39 29 17 29 39 39 38 40 36 38 39 43 42 40 35 38 40 44 38 34 31 31 30 29 23 32 33 30 29 28 26 25 27 26 26 25 25 25 24 26 28 23 26 26 24 28 26 24 27 27 24 21 25 24 23 23 24 24 25 25 25 26 26 26 26 28 29 29 31 31 33
58 58 58 58 57 57 57 56 55 54 53 49 47 46 48 49 50 51 36 27 25 35 37 37 30 34 36 37 39 40 34 29 29 39 39 39 32 32 31 28 28 30 29 28 26 31 27 27 27 27 26 26 25 25 25 27 26 26 27 24 20 29 20 13 26 27 25 24 24 27 26 25 25 25 26 27 26 27 28 29 30 31 30 29 28 29 32 32
58 58 58 58 57 57 57 56 55 53 51 50 48 46 48 52 50 48 40 18 20 24 33 34 31 31 32 28 38 37 32 30 30 34 41 35 31 34 30 29 29 29 26 28 24 24 21 28 30 27 27 25 25 25 25 25 23 32 31 27 24 27 24 20 17 26 27 28 30 27 26 24 23 22 21 25 28 29 29 30 30 32 35 34 37 37 36 31
58 58 58 58 57 57 56 54 53 51 51 49 50 51 50 51 51 46 30 13 19 21 35 31 40 39 31 44 41 33 35 34 32 35 42 35 32 30 29 31 29 27 27 30 28 28 24 27 28 27 28 27 26 25 28 29 22 27 32 28 23 23 22 23 26 24 23 24 30 28 15 17 23 25 24 22 24 25 28 29 28 30 32 35 32 33 35 38
57 58 58 57 57 57 55 53 51 51 49 49 49 50 50 50 52 48 22 16 14 21 25 23 37 24 40 37 40 36 28 21 34 38 37 41 40 31 30 29 29 24 28 29 26 31 26 30 30 28 28 31 28 25 32 29 22 25 19 30 26 24 27 27 27 26 20 19 28 29 16 14 19 20 19 20 22 20 23 28 26 27 28 29 32 34 34 35
56 57 57 57 57 56 53 52 52 51 44 43 47 49 49 50 50 45 17 19 12 30 22 29 25 25 39 34 37 18 11 17 39 39 37 42 33 33 27 28 28 29 30 29 26 25 30 28 31 32 29 32 29 24 28 26 25 18 34 30 27 26 28 30 28 28 24 31 34 29 27 22 20 18 27 27 26 25 26 27 29 29 30 30 29 31 34 35
56 56 57 57 56 55 55 51 50 47 45 46 49 50 50 52 46 40 20 13 15 34 26 25 26 37 36 36 34 13 23 31 28 35 38 39 36 30 28 28 25 27 30 29 23 30 29 33 32 31 32 29 26 28 34 26 23 25 33 32 30 25 31 31 30 28 30 26 22 27 34 20 22 22 28 26 21 22 22 21 22 23 27 24 29 30 34 35
55 55 56 57 56 54 53 51 49 49 49 51 51 51 52 47 39 24 19 13 28 20 38 23 37 33 35 33 26 29 28 34 21 35 41 36 38 32 26 29 28 29 29 28 23 29 25 34 30 30 29 25 30 31 30 29 24 32 32 33 33 34 33 33 29 29 29 23 22 25 28 18 13 22 18 27 22 17 16 15 17 22 24 31 32 35 36 34
54 54 56 56 56 55 54 53 52 52 52 51 51 50 48 43 22 17 12 14 31 19 26 28 26 26 33 27 23 29 25 32 36 35 35 33 34 33 30 32 29 29 32 29 31 30 30 33 36 30 28 31 31 32 34 33 32 34 35 33 33 33 32 31 32 29 27 18 20 27 26 20 15 21 11 22 22 18 14 17 19 24 29 30 33 35 39 34
53 54 54 56 54 55 53 52 54 53 52 51 50 49 42 34 21 15 16 20 21 26 28 27 26 33 29 26 23 29 31 32 34 34 32 33 31 30 29 27 31 32 30 30 31 34 32 32 34 35 33 34 32 34 35 34 35 36 33 32 30 27 28 29 28 27 19 14 25 27 28 25 13 18 22 21 22 23 21 18 15 18 21 34 36 32 33 33
53 53 53 56 56 56 52 52 54 53 53 52 53 48 32 22 22 14 14 13 15 25 26 28 31 31 27 27 32 27 25 33 34 33 31 31 32 28 27 22 29 24 23 25 25 32 30 31 33 34 36 32 37 31 31 34 34 33 31 28 18 15 16 16 25 17 18 13 26 24 27 23 23 16 21 21 22 22 24 24 23 23 23 30 33 35 35 38
52 52 52 54 55 54 55 54 53 53 53 53 49 46 30 23 18 19 19 17 15 31 25 34 30 30 28 26 26 29 32 25 32 33 33 35 32 32 34 27 31 27 13 25 27 24 27 36 33 34 34 32 32 25 29 28 31 31 26 23 17 10 15 13 17 17 14 19 21 21 26 22 21 21 20 19 20 23 24 25 29 27 28 30 33 36 33 38
51 51 53 52 53 55 54 53 53 54 53 51 45 40 35 26 25 32 24 21 26 29 32 33 31 30 27 25 29 29 24 28 32 32 32 33 32 31 30 30 28 28 25 23 20 23 16 16 26 31 28 33 30 23 28 26 30 29 35 26 20 15 18 14 12 7 11 21 21 21 24 24 22 11 22 21 23 26 26 27 30 33 32 34 35 36 34 34
50 51 52 53 52 54 53 53 54 54 52 48 41 31 27 26 30 30 28 25 30 32 32 32 30 31 28 30 32 29 30 26 32 32 32 31 29 31 29 27 30 28 32 16 25 26 22 20 26 31 36 31 31 33 30 34 34 34 36 31 24 20 18 4 18 15 17 18 21 23 21 22 21 23 25 25 27 27 28 29 30 29 30 33 33 33 33 33
50 50 50 50 52 54 54 53 54 53 50 44 36 31 28 31 31 38 35 30 30 33 30 30 33 29 31 29 32 30 34 29 30 32 32 32 33 30 32 30 29 27 22 15 28 18 20 15 32 34 33 30 32 29 29 29 18 29 29 27 25 28 22 22 22 20 19 17 15 25 20 20 21 17 19 20 18 20 23 25 26 27 30 32 33 35 34 35
48 48 47 49 50 54 54 53 54 52 49 42 34 30 32 34 38 39 40 30 29 31 31 23 27 25 28 25 30 31 30 34 33 31 27 33 28 30 31 30 32 29 24 17 25 31 21 22 30 32 29 32 32 34 34 32 32 30 26 28 33 32 32 20 12 22 18 13 16 20 15 8 9 9 20 22 21 19 20 21 22 25 32 31 34 36 37 40
46 45 46 46 49 54 54 53 53 52 47 41 34 34 38 36 41 41 41 38 35 37 30 26 27 31 29 26 26 29 31 26 29 31 28 28 24 32 30 28 30 29 28 25 19 27 25 15 28 31 33 34 33 34 30 35 36 29 30 37 23 21 19 22 18 15 16 17 18 17 16 15 17 12 14 14 21 20 21 23 23 22 25 29 32 34 36 37
45 45 41 43 45 54 54 53 52 48 43 37 35 35 38 36 43 38 39 41 39 36 34 32 25 30 33 27 30 30 30 25 31 29 25 29 23 30 27 30 31 30 29 26 21 26 27 19 23 32 31 33 33 32 26 29 34 35 33 29 34 25 20 22 18 23 15 12 16 20 14 11 26 18 18 13 13 20 16 22 22 23 24 26 28 33 35 36
44 40 38 43 51 54 53 52 49 45 41 34 35 35 41 36 39 40 40 36 35 35 37 36 34 32 35 31 32 28 32 30 30 30 27 30 25 29 27 29 27 33 30 27 25 34 22 22 15 30 32 32 28 30 28 30 28 28 28 26 28 29 29 27 25 20 13 13 13 11 10 13 12 18 17 13 13 15 17 21 30 29 28 30 31 35 39 40
45 40 40 47 52 53 53 49 44 39 38 39 38 38 38 37 39 39 42 42 42 40 36 35 35 35 36 35 32 33 32 31 31 29 29 27 26 24 30 29 33 30 30 29 28 29 26 18 18 29 29 27 27 34 31 31 29 28 26 26 25 26 24 21 20 24 23 16 17 13 13 16 13 24 20 15 17 18 25 26 30 32 29 32 37 37 39 41
38 27 33 50 53 53 49 41 41 43 40 37 36 38 38 41 38 39 39 42 40 40 42 40 36 34 34 34 37 36 34 32 32 31 32 28 29 25 33 31 28 32 29 28 27 31 26 30 23 27 28 28 31 31 31 31 32 31 30 27 28 27 25 22 18 24 25 23 23 24 16 16 15 23 23 22 23 22 24 29 28 30 32 31 36 38 38 39
37 31 45 46 52 52 46 39 41 40 38 39 40 40 41 39 38 39 37 40 36 40 41 37 35 33 35 32 33 33 34 34 36 33 34 33 30 27 33 30 32 31 30 31 33 31 32 27 23 23 29 30 31 33 33 31 32 32 31 33 31 27 27 23 25 23 22 24 22 21 19 21 20 30 27 26 29 29 29 29 30 28 30 30 34 38 36 36
36 35 38 46 51 50 43 32 33 36 38 39 39 38 40 39 39 38 36 38 36 38 36 38 37 35 34 36 33 31 33 30 36 34 33 36 32 34 35 32 30 32 29 29 27 32 26 30 25 22 23 24 27 31 30 33 33 30 28 31 32 32 31 31 28 25 22 26 24 20 19 20 25 29 29 28 28 27 27 28 30 32 32 35 33 34 36 36
37 40 40 41 47 46 38 39 34 36 37 37 37 36 37 38 40 37 36 37 39 38 37 36 36 39 37 38 35 37 38 33 31 37 35 35 32 37 32 38 31 31 30 39 36 35 28 29 25 21 19 18 18 21 23 27 29 30 32 34 33 32 31 27 24 25 22 26 27 22 20 21 21 29 27 27 27 27 28 30 29 31 32 34 35 37 37 37
34 25 34 39 41 42 40 39 37 37 35 36 35 36 37 35 40 41 39 38 37 39 36 40 41 39 37 37 37 36 36 39 35 35 39 35 36 35 36 32 32 34 34 36 36 34 30 32 28 25 22 21 22 22 30 34 31 29 30 31 33 34 32 30 27 25 22 24 24 25 25 22 22 23 24 27 29 27 26 27 28 31 31 32 34 36 38 38
37 30 32 29 36 36 36 37 37 37 36 35 32 35 34 35 36 38 40 37 39 37 39 37 39 36 37 36 35 35 36 37 39 37 35 35 37 37 35 38 35 35 36 35 36 32 32 28 30 30 28 25 24 24 32 31 30 30 29 30 32 33 32 30 27 25 27 25 22 26 28 27 23 23 24 25 27 29 30 29 29 29 31 35 35 34 34 31
30 33 32 35 29 26 30 29 34 35 37 36 35 35 33 33 34 34 39 38 39 38 36 39 38 36 36 36 36 34 35 36 37 34 36 36 37 38 36 36 37 37 35 35 38 31 31 28 31 32 29 29 28 25 27 29 28 30 30 31 32 33 32 30 30 30 30 27 23 26 28 27 25 25 25 25 25 25 27 28 29 29 31 32 33 32 33 33
37 37 37 39 32 34 32 34 34 34 34 37 37 36 33 32 32 34 36 38 37 38 37 33 36 36 36 36 36 34 35 33 34 36 35 35 35 35 33 36 37 37 34 33 34 34 33 29 32 32 31 31 31 30 30 30 27 27 30 30 30 33 32 32 31 31 30 29 30 29 28 28 27 27 26 27 28 29 27 30 32 32 31 33 33 33 33 34
32 33 32 36 36 34 34 34 33 33 32 34 33 34 35 34 32 34 36 38 35 36 38 35 34 36 37 37 37 35 34 35 35 34 37 36 34 36 34 35 35 38 34 35 35 37 34 31 33 34 32 31 32 32 32 31 32 28 29 30 30 32 33 33 33 33 32 32 31 30 29 28 28 28 29 29 30 33 31 28 28 31 34 34 34 34 34 34
40 37 40 34 31 33 33 33 33 33 31 31 32 32 34 34 34 35 36 38 36 35 37 35 35 36 37 37 37 37 37 36 37 36 37 37 34 37 35 36 35 36 35 33 36 36 36 32 36 35 31 31 33 33 32 32 31 29 28 29 30 30 30 31 31 32 31 30 31 31 30 29 29 30 30 30 32 31 30 30 30 31 32 33 34 34 34 35
40 41 40 37 27 31 32 32 33 32 26 30 32 32 32 32 34 35 34 38 39 39 39 38 38 36 35 36 37 37 38 38 38 39 38 38 38 37 37 38 38 36 34 33 38 35 36 33 32 32 31 30 33 34 33 33 31 29 30 29 30 29 29 31 32 33 32 32 30 28 29 30 30 30 30 29 30 31 30 30 32 32 33 34 33 34 35 35